Newark, OH

12:06 AM EDT on July 28, 2016 (GMT -0400)
Newark Heath

Weather History for KVTA - September, 2012

Change the Weather History Date:

Thursday, September 13, 2012

  Actual Average Record
Temperature  
Mean Temperature 68 °F -  
Max Temperature 82 °F 79 °F 95 °F (1939)
Min Temperature 53 °F 54 °F 37 °F (1941)
Cooling Degree Days 2    
Growing Degree Days 18 (Base 50)    
Moisture  
Dew Point 57 °F    
Average Humidity 84    
Maximum Humidity 100    
Minimum Humidity 41    
Precipitation  
Precipitation 0.00 in - - ()
Sea Level Pressure  
Sea Level Pressure 30.27 in    
Wind  
Wind Speed 1 mph (SSE)    
Max Wind Speed 8 mph    
Max Gust Speed -    
Visibility 5 miles    
Events Fog    
Averages and records for this station are not official NWS values.
T = Trace of Precipitation, MM = Missing Value Source: NWS Daily Summary

Daily Weather History Graph

Daily Weather History Graph

Search for Another Location

Airport or City:

Trip Planner

Search our weather history database for the weather conditions in past years. The results will help you decide how hot, cold, wet, or windy it might be!

Date:

Astronomy

Sep. 13, 2012 Rise Set
Actual Time 7:09 AM EDT 7:41 PM EDT
Civil Twilight 6:42 AM EDT 8:08 PM EDT
Nautical Twilight 6:09 AM EDT 8:40 PM EDT
Astronomical Twilight 5:36 AM EDT 9:13 PM EDT
Moon 4:27 AM EDT (9/13) 6:03 PM EDT (9/13)
Length of Visible Light 13h 26m
Length of Day
12h 31m
Waning Crescent, 7% of the Moon is Illuminated
Sep 13
Waning Crescent
Sep 15
New
Sep 22
First Quarter
Sep 29
Full
Oct 8
Last Quarter

Hourly Weather History & Observations

Time (EDT) Temp. Heat Index Dew Point Humidity Pressure Visibility Wind Dir Wind Speed Gust Speed Precip Events Conditions
12:54 AM 57.9 °F - 57.0 °F 97% 30.26 in 6.0 mi Calm Calm - N/A   Clear
1:54 AM 57.0 °F - 55.9 °F 96% 30.27 in 4.0 mi Calm Calm - N/A   Clear
2:54 AM 55.9 °F - 55.0 °F 97% 30.26 in 5.0 mi Calm Calm - N/A   Clear
3:14 AM 55.4 °F - 55.4 °F 100% 30.27 in 1.5 mi Calm Calm - N/A   Clear
3:22 AM 55.4 °F - 53.6 °F 94% 30.27 in 0.8 mi Calm Calm - N/A   Clear
3:26 AM 55.4 °F - 53.6 °F 94% 30.27 in 2.0 mi Calm Calm - N/A   Clear
3:33 AM 55.4 °F - 53.6 °F 94% 30.27 in 4.0 mi Calm Calm - N/A   Clear
3:49 AM 55.4 °F - 55.4 °F 100% 30.27 in 1.5 mi Calm Calm - N/A   Clear
3:54 AM 55.9 °F - 55.0 °F 97% 30.26 in 0.8 mi Calm Calm - N/A   Clear
4:13 AM 55.4 °F - 53.6 °F 94% 30.27 in 2.5 mi Calm Calm - N/A   Clear
4:54 AM 54.0 °F - 54.0 °F 100% 30.27 in 1.5 mi Calm Calm - N/A   Clear
5:24 AM 55.4 °F - 53.6 °F 94% 30.28 in 3.0 mi Calm Calm - N/A   Partly Cloudy
5:54 AM 54.0 °F - 53.1 °F 97% 30.28 in 3.0 mi Calm Calm - N/A   Scattered Clouds
5:59 AM 53.6 °F - 53.6 °F 100% 30.29 in 1.8 mi Calm Calm - N/A   Mostly Cloudy
6:11 AM 55.4 °F - 53.6 °F 94% 30.29 in 0.5 mi Calm Calm - N/A Fog Fog
6:30 AM 55.4 °F - 53.6 °F 94% 30.30 in 2.0 mi Calm Calm - N/A   Scattered Clouds
6:44 AM 55.4 °F - 53.6 °F 94% 30.30 in 4.0 mi Calm Calm - N/A   Scattered Clouds
6:54 AM 55.0 °F - 54.0 °F 96% 30.30 in 3.0 mi Calm Calm - N/A   Mostly Cloudy
7:25 AM 55.4 °F - 55.4 °F 100% 30.31 in 2.5 mi Calm Calm - N/A   Scattered Clouds
7:52 AM 57.2 °F - 57.2 °F 100% 30.32 in 3.0 mi Calm Calm - N/A   Mostly Cloudy
7:54 AM 57.9 °F - 57.0 °F 97% 30.31 in 3.0 mi Calm Calm - N/A   Mostly Cloudy
8:04 AM 57.2 °F - 57.2 °F 100% 30.32 in 2.5 mi Calm Calm - N/A   Mostly Cloudy
8:14 AM 59.0 °F - 57.2 °F 94% 30.32 in 3.0 mi Calm Calm - N/A   Mostly Cloudy
8:54 AM 62.1 °F - 59.0 °F 90% 30.31 in 7.0 mi Calm Calm - N/A   Clear
9:54 AM 69.1 °F - 61.0 °F 75% 30.32 in 10.0 mi Calm Calm - N/A   Clear
10:54 AM 73.9 °F - 63.0 °F 68% 30.31 in 10.0 mi Calm Calm - N/A   Partly Cloudy
11:54 AM 79.0 °F - 62.1 °F 56% 30.31 in 10.0 mi Calm Calm - N/A   Clear
12:54 PM 81.0 °F 81.7 °F 61.0 °F 50% 30.29 in 10.0 mi SSE 8.1 mph - N/A   Clear
1:54 PM 82.0 °F 82.1 °F 59.0 °F 45% 30.26 in 10.0 mi SSW 6.9 mph - N/A   Scattered Clouds
2:54 PM 82.0 °F 81.6 °F 55.9 °F 41% 30.24 in 10.0 mi ESE 5.8 mph - N/A   Clear
3:54 PM 81.0 °F 80.8 °F 55.9 °F 42% 30.22 in 10.0 mi Variable 6.9 mph - N/A   Clear
4:54 PM 81.0 °F 81.0 °F 57.0 °F 44% 30.21 in 10.0 mi ESE 8.1 mph - N/A   Clear
5:54 PM 80.1 °F 80.7 °F 59.0 °F 48% 30.21 in 10.0 mi SE 3.5 mph - N/A   Clear
6:54 PM 75.0 °F - 62.1 °F 64% 30.21 in 10.0 mi SE 4.6 mph - N/A   Clear
7:54 PM 73.9 °F - 60.1 °F 62% 30.22 in 10.0 mi Calm Calm - N/A   Clear
9:54 PM 63.0 °F - 61.0 °F 93% 30.22 in 10.0 mi Calm Calm - N/A   Clear
10:54 PM 63.0 °F - 60.1 °F 90% 30.23 in 10.0 mi Calm Calm - N/A   Clear
11:54 PM 60.1 °F - 59.0 °F 96% 30.23 in 8.0 mi West 3.5 mph - N/A   Clear